Location: Jablonec nad Nisou
(50.7221°N, 15.1703°E)
Time: 21:25:36
(UTC+02:00)

Mayak - Visible Passes

Search period start: 21 July 2018 00:00
Search period end: 31 July 2018 00:00
Orbit: 582 x 605 km, 97.6° (Epoch: 21 July)

Date Brightness Start Highest point End Pass type
(mag) Time Alt. Az. Time Alt. Az. Time Alt. Az.
21 Jul -1.3 00:32:21 10° NNE 00:36:32 87° WNW 00:37:58 40° SSW visible
21 Jul 1.3 02:09:42 10° NNW 02:11:30 13° WNW 02:13:17 10° W visible
21 Jul 0.8 23:07:21 10° NE 23:09:34 14° E 23:10:33 13° ESE visible
22 Jul -1.1 00:41:31 10° N 00:45:40 71° WNW 00:47:10 38° SSW visible
22 Jul 1.4 02:19:40 10° NW 02:20:32 11° NW 02:21:23 10° WNW visible
22 Jul 0.5 23:16:04 10° NE 23:18:49 17° E 23:19:45 16° ESE visible
23 Jul -0.9 00:50:43 10° N 00:54:48 57° WNW 00:56:22 34° SW visible
23 Jul 0.3 23:24:55 10° NE 23:28:04 21° E 23:28:57 19° ESE visible
24 Jul -0.5 00:59:56 10° N 01:03:56 46° WNW 01:05:34 30° SW visible
24 Jul 0.0 23:33:50 10° NE 23:37:18 25° E 23:38:08 23° ESE visible
25 Jul -0.2 01:09:10 10° N 01:13:02 38° WNW 01:14:45 26° WSW visible
25 Jul -0.2 23:42:48 10° NNE 23:46:31 30° E 23:47:20 28° ESE visible
26 Jul 0.1 01:18:26 10° N 01:22:08 32° WNW 01:23:56 22° WSW visible
26 Jul -0.5 23:51:50 10° NNE 23:55:43 37° E 23:56:31 34° ESE visible
27 Jul 0.4 01:27:43 10° N 01:31:13 26° WNW 01:33:08 19° WSW visible
28 Jul -0.8 00:00:53 10° NNE 00:04:55 46° E 00:05:42 40° SE visible
28 Jul 0.7 01:37:02 10° NNW 01:40:17 22° WNW 01:42:19 16° W visible
29 Jul -1.1 00:09:58 10° NNE 00:14:05 57° E 00:14:53 48° SE visible
29 Jul 0.9 01:46:24 10° NNW 01:49:21 19° WNW 01:51:30 13° W visible
30 Jul -1.3 00:19:05 10° NNE 00:23:16 71° ESE 00:24:04 54° SSE visible
30 Jul 1.1 01:55:50 10° NNW 01:58:23 16° WNW 02:00:40 11° W visible
30 Jul 1.0 22:55:13 10° ENE 22:56:09 11° E 22:56:37 10° E visible
